| time (UTC) | temp C | wind direction | speed KPH | gust KPH | rain 1hr cm | rain 24hr cm | rain mn cm | humidity % | barometer mb |
| 20260504081516 | 4 | 311 | 1.6 | 4.8 | 0.00 | 0.00 | 0.00 | 87 | 1009.2 |
| 20260504044546 | 0 | 191 | 0.0 | 0.0 | 0.00 | 0.00 | 0.00 | 86 | 1009.5 |
| 20260504043042 | 0 | 162 | 0.0 | 0.0 | 0.00 | 0.00 | 0.00 | 87 | 1009.6 |
| 20260504041540 | 0 | 162 | 0.0 | 0.0 | 0.00 | 0.00 | 0.00 | 84 | 1009.6 |
| 20260504040049 | 0 | 162 | 0.0 | 0.0 | 0.00 | 0.00 | 0.00 | 83 | 1009.5 |
| 20260504034548 | 0 | 186 | 0.0 | 1.6 | 0.00 | 0.00 | 0.00 | 83 | 1009.4 |
| 20260504033037 | 0 | 203 | 0.0 | 0.0 | 0.00 | 0.00 | 0.00 | 82 | 1009.4 |
| 20260504031535 | 0 | 181 | 0.0 | 1.6 | 0.00 | 0.00 | 0.00 | 81 | 1009.5 |
| 20260504030033 | 0 | 185 | 0.0 | 1.6 | 0.00 | 0.00 | 0.00 | 81 | 1009.4 |
| 20260504024532 | 0 | 189 | 0.0 | 0.0 | 0.00 | 0.00 | 0.00 | 81 | 1009.4 |
| 20260504023031 | 0 | 189 | 0.0 | 0.0 | 0.00 | 0.00 | 0.00 | 80 | 1009.5 |
| 20260504021529 | 1 | 192 | 0.0 | 1.6 | 0.00 | 0.00 | 0.00 | 79 | 1009.6 |
| 20260504020027 | 1 | 192 | 0.0 | 1.6 | 0.00 | 0.00 | 0.00 | 78 | 1009.4 |
| 20260504014525 | 2 | 179 | 0.0 | 4.8 | 0.00 | 0.00 | 0.00 | 76 | 1009.3 |
| 20260504013030 | 2 | 191 | 0.0 | 3.2 | 0.00 | 0.00 | 0.00 | 74 | 1009.2 |
| 20260504011519 | 2 | 180 | 0.0 | 1.6 | 0.00 | 0.00 | 0.00 | 69 | 1009.1 |
| 20260504010017 | 4 | 171 | 0.0 | 1.6 | 0.00 | 0.00 | 0.00 | 65 | 1008.9 |
| 20260504004518 | 5 | 232 | 0.0 | 3.2 | 0.00 | 0.00 | 0.00 | 61 | 1008.8 |
| 20260504003016 | 5 | 236 | 0.0 | 1.6 | 0.00 | 0.00 | 0.00 | 59 | 1008.6 |
| 20260504001516 | 6 | 271 | 0.0 | 1.6 | 0.00 | 0.00 | 0.00 | 55 | 1008.5 |
| 20260504000015 | 7 | 283 | 0.0 | 4.8 | 0.00 | 0.00 | 0.00 | 51 | 1008.4 |
| 20260503234515 | 7 | 283 | 0.0 | 8.0 | 0.00 | 0.00 | 0.00 | 48 | 1008.2 |
| 20260503233014 | 8 | 321 | 3.2 | 11.3 | 0.00 | 0.00 | 0.00 | 50 | 1008.1 |
| 20260503231519 | 8 | 302 | 6.4 | 25.7 | 0.00 | 0.00 | 0.00 | 50 | 1008.0 |
| 20260503230013 | 8 | 310 | 9.7 | 17.7 | 0.00 | 0.00 | 0.00 | 51 | 1008.0 |
| 20260503224512 | 8 | 307 | 11.3 | 25.7 | 0.00 | 0.00 | 0.00 | 52 | 1008.0 |
| 20260503223013 | 8 | 299 | 12.9 | 22.5 | 0.00 | 0.00 | 0.00 | 54 | 1008.0 |
| 20260503221512 | 8 | 293 | 19.3 | 32.2 | 0.00 | 0.00 | 0.00 | 52 | 1008.0 |
| 20260503220010 | 8 | 295 | 20.9 | 32.2 | 0.00 | 0.00 | 0.00 | 53 | 1007.8 |
| 20260503214510 | 8 | 307 | 30.6 | 41.8 | 0.00 | 0.03 | 0.00 | 50 | 1007.8 |
| 20260503213010 | 8 | 304 | 24.1 | 40.2 | 0.00 | 0.03 | 0.00 | 50 | 1007.9 |
| 20260503211508 | 8 | 320 | 19.3 | 29.0 | 0.00 | 0.03 | 0.00 | 50 | 1007.8 |
| 20260503210009 | 8 | 304 | 32.2 | 48.3 | 0.00 | 0.03 | 0.00 | 52 | 1007.8 |
| 20260503204506 | 8 | 306 | 30.6 | 54.7 | 0.00 | 0.03 | 0.00 | 48 | 1007.8 |
| 20260503203006 | 8 | 300 | 11.3 | 49.9 | 0.00 | 0.03 | 0.00 | 46 | 1007.5 |
| 20260503201505 | 8 | 304 | 27.4 | 40.2 | 0.00 | 0.03 | 0.00 | 43 | 1007.5 |
| 20260503200004 | 8 | 303 | 32.2 | 43.5 | 0.00 | 0.03 | 0.00 | 43 | 1007.3 |
| 20260503194504 | 8 | 304 | 37.0 | 46.7 | 0.00 | 0.03 | 0.00 | 45 | 1007.4 |
| 20260503193003 | 8 | 253 | 12.9 | 40.2 | 0.00 | 0.03 | 0.00 | 44 | 1007.5 |
| 20260503191502 | 8 | 311 | 29.0 | 46.7 | 0.00 | 0.03 | 0.00 | 43 | 1007.5 |
| 20260503190004 | 8 | 294 | 19.3 | 40.2 | 0.00 | 0.03 | 0.00 | 45 | 1007.5 |
| 20260503184506 | 8 | 309 | 29.0 | 48.3 | 0.00 | 0.08 | 0.00 | 49 | 1007.5 |
| 20260503183000 | 8 | 304 | 29.0 | 45.1 | 0.00 | 0.08 | 0.00 | 47 | 1007.5 |
| 20260503181600 | 8 | 294 | 20.9 | 43.5 | 0.00 | 0.08 | 0.00 | 42 | 1007.4 |
| 20260503174559 | 8 | 283 | 22.5 | 51.5 | 0.00 | 0.08 | 0.00 | 45 | 1007.3 |
| 20260503173113 | 8 | 319 | 25.7 | 43.5 | 0.00 | 0.08 | 0.00 | 48 | 1007.2 |
| 20260503171556 | 8 | 304 | 30.6 | 48.3 | 0.00 | 0.08 | 0.00 | 48 | 1007.5 |